Flag for Lebanon Weather past 2 weeks in Beirut, Lebanon

Now
82 °F

Sunny.


Feels Like: 84 °F
Forecast: 76 / 82 °F
Wind: 10 mph from North

Location: Beirut Airport

Current Time: Jul 1, 2015 at 6:55:41 PM

Latest Report: Jul 1, 2015 at 6:00 PM


Visibility: N/A

Pressure: 29.92 "Hg

Humidity: 55%

Dew point: 64 °F

Location of BeirutLocation

Historic Weather in Beirut — Graph

°F

Beirut temperature yesterday

Maximum temperature yesterday: 81 °F (at 11:00 AM)
Minimum temperature yesterday: 73 °F (at 3:00 AM)
Average temperature yesterday: 77 °F

Past Weeks' High & Low Weather Summary

 TemperatureHumidityPressure
High82 °F (Jun 18, 3:00 PM)83% (Jun 16, 8:00 PM)30.01 "Hg (Jun 16, 8:00 PM)
Low72 °F (Jun 17, 5:00 AM)37% (Jun 19, 8:00 AM)29.62 "Hg (Jun 28, 3:00 AM)
Average78 °F65%29.84 "Hg
* Reported Jun 16 6:00 PM — Jul 1 6:00 PM, Beirut, Weather by CustomWeather, © 2015

Note: Actual official high and low records may vary slightly from our data, if they occured in-between our weather recording intervals... More about our weather records

Advertising

Beirut weather history for previous 24 hours

 ConditionsComfort  
Time TempWeatherWind HumidityBarometerVisibility
6:00 PM
Wed, Jul 1
82 °FSunny.10 mph55%29.92 "HgN/A
5:00 PM82 °FSunny.10 mph55%29.92 "HgN/A
4:00 PM82 °FSunny.14 mph58%29.95 "HgN/A
3:00 PM82 °FPassing clouds.16 mph58%29.95 "Hg5 mi
2:00 PM81 °FPassing clouds.15 mph62%29.98 "Hg5 mi
1:00 PM81 °FPassing clouds.15 mph62%29.98 "Hg5 mi
12:00 PM81 °FPassing clouds.13 mph62%29.98 "Hg5 mi
11:00 AM79 °FScattered clouds.13 mph65%30.01 "Hg5 mi
10:00 AM81 °FScattered clouds.10 mph62%30.01 "Hg5 mi
9:00 AM79 °FPassing clouds.3 mph61%30.01 "Hg5 mi
8:00 AM77 °FPassing clouds.5 mph61%29.98 "Hg5 mi
7:00 AM73 °FPartly sunny.5 mph61%29.98 "HgN/A
6:00 AM73 °FPassing clouds.6 mph61%29.98 "HgN/A
5:00 AM73 °FPassing clouds.6 mph65%29.98 "HgN/A
4:00 AM75 °FPassing clouds.6 mph65%29.98 "HgN/A
3:00 AM75 °FPassing clouds.5 mph74%30.01 "HgN/A
2:00 AM75 °FPassing clouds.5 mph74%30.01 "HgN/A
1:00 AM75 °FPassing clouds.5 mph74%30.01 "HgN/A
12:00 AM75 °FPassing clouds.3 mph74%30.01 "HgN/A
11:00 PM
Tue, Jun 30
75 °FPassing clouds.3 mph69%30.01 "HgN/A
10:00 PM75 °FPassing clouds.2 mph74%30.01 "HgN/A
9:00 PM75 °FPassing clouds.2 mph74%30.01 "HgN/A
8:00 PM77 °FPassing clouds.5 mph69%30.01 "HgN/A
7:00 PM79 °FPassing clouds.7 mph61%29.98 "HgN/A
6:00 PM79 °FPassing clouds.8 mph58%29.98 "HgN/A
Weather by CustomWeather, © 2015

See weather overviewHow to use our weather pages